Content
SEND FEEDBACK

Daily
Averages
Monthly
Summary
United States of America

TRUCKEE, CALIFORNIA


Home > North America > United States > California
Elevation: 5966 feet     Latitude: 39 20N     Longitude: 120 11W

WEATHER
 
SELECT A DAY
Number of Records: 282,275;   Date Range: 1/1/95 - 7/26/14
 
SHARE

PRINT THIS DATA

[ ← Previous Day ]
WEATHER ALMANAC - FEBRUARY 10, 2013
[ Next Day → ]
[ °C ]   °F
Weather ElementAverageHighLow
Temperature20.1 °F32 °F (11:55 am)8.6 °F (3:35 am)
Dewpoint10.8 °F17.6 °F (10:50 am)5 °F (5:15 am)
Humidity69.5 %92 % (12:55 am)47 % (5:55 pm)
Barometer30.06 in30.09 in (11:15 pm)30.03 in (1:50 pm)
Wind Speed3.7 mph13.8 mph (11:55 am)
Wind Gust23 mph (2:55 pm)
Weather ElementAverage
Visibility9.9 mi
Wind DirectionNE (47.2 °)

Weather ElementTotal
Precipitation---
Heating Degree Days44.7 (Base 65)
Averaged from 47 records on February 10, 2013
WEATHER CONDITIONS BREAKOUT
WIND DIRECTION BREAKOUT
WEATHER BY HOUR - FEBRUARY 10, 2013
[ °C ]   °F
Local TimeTemperatureDewpointHumidityBarometerVisibilityWind DirectionWind SpeedGust SpeedPrecipitationEventsConditions
12:35 AM12.2 °F8.6 °F85 %30.07 in10.0 miCalmClear
12:55 AM10.4 °F8.6 °F92 %30.07 in10.0 miCalmClear
1:15 AM12.2 °F8.6 °F85 %30.07 in10.0 miCalmClear
1:35 AM14.0 °F10.4 °F86 %30.07 in10.0 miCalmClear
1:55 AM10.4 °F8.6 °F92 %30.07 in10.0 miCalmClear
2:15 AM10.4 °F8.6 °F92 %30.06 in10.0 miCalmClear
2:35 AM10.4 °F8.6 °F92 %30.06 in10.0 miCalmClear
2:55 AM12.2 °F8.6 °F85 %30.06 in10.0 miCalmClear
3:15 AM10.4 °F8.6 °F92 %30.06 in10.0 miCalmClear
3:35 AM8.6 °F6.8 °F92 %30.06 in10.0 miCalmClear
3:55 AM8.6 °F6.8 °F92 %30.05 in10.0 miCalmClear
4:15 AM8.6 °F6.8 °F92 %30.06 in10.0 miCalmClear
4:35 AM10.4 °F6.8 °F85 %30.06 in10.0 miCalmClear
4:55 AM8.6 °F6.8 °F92 %30.06 in10.0 miCalmClear
5:15 AM8.6 °F5.0 °F85 %30.06 in10.0 miCalmClear
5:35 AM8.6 °F5.0 °F85 %30.05 in10.0 miCalmClear
6:55 AM8.6 °F5.0 °F85 %30.05 in10.0 miNE (50°)3.5 mphScattered Clouds
8:55 AM14.0 °F10.4 °F86 %30.08 in10.0 miCalmScattered Clouds
9:55 AM23.0 °F15.8 °F74 %30.08 in10.0 miCalmMostly Cloudy
10:50 AM28.4 °F17.6 °F64 %30.08 in10.0 miNNE (30°)10.4 mphMostly Cloudy
11:55 AM32.0 °F17.6 °F55 %30.05 in10.0 miNorth (10°)13.8 mphScattered Clouds
12:55 PM32.0 °F15.8 °F51 %30.04 in10.0 miNNE (20°)11.5 mph17.3 mphScattered Clouds
1:50 PM32.0 °F15.8 °F51 %30.03 in10.0 miNNE (30°)13.8 mphScattered Clouds
2:55 PM32.0 °F14.0 °F48 %30.04 in10.0 miNorth (10°)13.8 mph23.0 mphScattered Clouds
3:55 PM32.0 °F14.0 °F48 %30.05 in10.0 miNorth (10°)10.4 mph16.1 mphMostly Cloudy
4:55 PM30.2 °F15.8 °F55 %30.05 in10.0 miNNE (30°)9.2 mphPartly Cloudy
5:15 PM28.4 °F14.0 °F55 %30.05 in5.0 miNNE (20°)8.1 mphHaze
5:35 PM28.4 °F14.0 °F55 %30.04 in10.0 miNE (40°)6.9 mphClear
5:55 PM28.4 °F10.4 °F47 %30.05 in10.0 miNE (40°)6.9 mphClear
6:15 PM28.4 °F10.4 °F47 %30.06 in10.0 miNE (50°)5.8 mphClear
6:35 PM26.6 °F10.4 °F51 %30.06 in10.0 miCalmScattered Clouds
6:55 PM24.8 °F12.2 °F59 %30.06 in10.0 miCalmScattered Clouds
7:15 PM26.6 °F10.4 °F51 %30.06 in10.0 miCalmPartly Cloudy
7:35 PM26.6 °F10.4 °F51 %30.06 in10.0 miCalmPartly Cloudy
7:55 PM26.6 °F12.2 °F55 %30.06 in10.0 miWNW (300°)3.5 mphClear
8:15 PM26.6 °F12.2 °F55 %30.06 in10.0 miCalmPartly Cloudy
8:35 PM23.0 °F12.2 °F63 %30.07 in10.0 miNW (320°)3.5 mphClear
8:55 PM24.8 °F14.0 °F64 %30.07 in10.0 miNW (320°)5.8 mphPartly Cloudy
9:15 PM26.6 °F12.2 °F55 %30.07 in10.0 miNNE (30°)6.9 mphClear
9:35 PM24.8 °F12.2 °F59 %30.07 in10.0 miNW (320°)8.1 mphClear
9:55 PM24.8 °F12.2 °F59 %30.08 in10.0 miNNE (20°)4.6 mphClear
10:15 PM23.0 °F10.4 °F59 %30.08 in10.0 miEast (100°)5.8 mphClear
10:35 PM23.0 °F10.4 °F59 %30.08 in10.0 miNNE (30°)3.5 mphClear
10:55 PM19.4 °F10.4 °F68 %30.08 in10.0 miCalmClear
11:15 PM17.6 °F10.4 °F73 %30.09 in10.0 miSE (140°)4.6 mphClear
11:35 PM19.4 °F10.4 °F68 %30.09 in10.0 miSSE (150°)4.6 mphClear
11:55 PM17.6 °F10.4 °F73 %30.08 in10.0 miSSE (150°)6.9 mphClear
Hourly data recorded from KTRK, located miles away from Truckee, California







STORIES FROM OUR PARTNERS